Regional Weather Roundup
Issued by NWS Boston, MA

Current Version | Previous Version | Text Only | Print | Product List | Glossary Off
Versions: 1 2 3 4 5 6 7 8 9 10 11 12 13 14 15 16 17 18 19 20 21 22 23 24 25 26 27 28 29 30 31 32 33 34 35 36 37 38 39 40 41 42 43 44 45 46 47 48 49 50
000 ASUS41 KBOX 180510 RWRBOX REGIONAL WEATHER ROUNDUP NATIONAL WEATHER SERVICE TAUNTON MA 1200 AM EST THU JAN 18 2018 NOTE: "FAIR" INDICATES FEW OR NO CLOUDS BELOW 12,000 FEET WITH NO SIGNIFICANT WEATHER AND/OR OBSTRUCTIONS TO VISIBILITY. MAZALL-180600- EASTERN MASSACHUSETTS CITY SKY/WX TMP DP RH WIND PRES REMARKS BOSTON CLOUDY 32 28 85 NW9 30.06S WCI 24 BEVERLY CLOUDY 31 29 92 NW6 30.04F WCI 25 LAWRENCE CLOUDY 32 27 81 W6 30.07F WCI 26 BEDFORD CLOUDY 30 27 88 NW7 30.05F WCI 23 BLUE HILL NOT AVBL NORWOOD CLOUDY 34 30 85 NW5 30.05F WCI 30 MARSHFIELD CLOUDY 32 32 100 CALM 30.04F PLYMOUTH CLOUDY 33 31 92 NW5 30.03F FOG WCI 29 TAUNTON CLOUDY 33 31 92 CALM 30.04F NEW BEDFORD CLOUDY 32 32 100 VRB3 30.05F $$ MAZALL-180600- CAPE COD AND THE ISLANDS CITY SKY/WX TMP DP RH WIND PRES REMARKS FALMOUTH N/A N/A N/A N/A MISG 30.04 FOG HYANNIS CLOUDY 33 32 96 N8 30.02F WCI 26 CHATHAM CLOUDY 34 34 100 NW6 30.02F WCI 29 PROVINCETOWN MIX PCPN 33 32 96 NW12 30.04 FOG WCI 24 NANTUCKET CLOUDY 33 33 100 NW9 30.03F FOG WCI 25 MARTHAS VNYRD CLOUDY N/A N/A N/A NW6 30.04F $$ MAZALL-180600- CENTRAL AND WESTERN MASSACHUSETTS CITY SKY/WX TMP DP RH WIND PRES REMARKS WORCESTER MOCLDY 23 19 85 W13 30.00F WCI 11 FITCHBURG FAIR 27 22 81 NW10 30.06F WCI 17 ORANGE FAIR 16 15 96 CALM 30.08F SPRINGFIELD FAIR 17 11 78 W6 30.10S WCI 8 WESTFIELD FAIR 17 11 77 N5 30.11F WCI 10 NORTH ADAMS FAIR 12 8 84 W6 30.11F WCI 3 PITTSFIELD FAIR 12 6 77 NW5 30.06F WCI 4 $$ RIZALL-180600- RHODE ISLAND CITY SKY/WX TMP DP RH WIND PRES REMARKS PROVIDENCE CLOUDY 33 30 88 NW8 30.05F WCI 26 NEWPORT CLOUDY 32 31 96 NW5 30.04F WCI 27 BLOCK ISLAND CLOUDY 32 31 96 NW7 30.05F WCI 26 SMITHFIELD CLOUDY N/A N/A N/A NW5 30.04F WESTERLY CLOUDY 30 27 88 NW9 30.07S WCI 22 $$ CTZALL-180600- CONNECTICUT CITY SKY/WX TMP DP RH WIND PRES REMARKS BRADLEY INTL FAIR 17 10 74 NW8 30.12F WCI 7 HARTFORD FAIR 21 11 65 N7 30.13F WCI 12 BRIDGEPORT FAIR 22 11 62 NW10 30.13F WCI 11 DANBURY FAIR 18 9 68 N6 30.13F WCI 10 GROTON FAIR 26 20 77 NW12 30.07F WCI 16 NEW HAVEN FAIR 22 11 62 NW10 30.11F WCI 11 CHESTER FAIR 21 14 73 CALM 30.07F MERIDEN FAIR 19 11 70 NW6 30.13F WCI 11 WILLIMANTIC FAIR 23 18 81 NW5 30.09F WCI 17 OXFORD FAIR 15 11 83 N7 30.09F WCI 5 $$ MEZ002-015-021-024-NHZ003-005-008-011-012-014-VTZ005-008-180600- NORTHERN NEW ENGLAND CITY SKY/WX TMP DP RH WIND PRES REMARKS PORTLAND ME CLOUDY 27 25 92 VRB5 30.04F WCI 22 BANGOR ME LGT SNOW 24 22 91 NW6 30.00F FOG WCI 17 CONCORD NH MOCLDY 26 21 81 W6 30.05S WCI 19 MANCHESTER NH MOCLDY 28 24 85 W6 30.04F WCI 22 NASHUA NH CLOUDY 27 24 89 W3 30.06F PORTSMOUTH NH CLOUDY 28 26 93 W3 30.03F JAFFREY NH FAIR 22 20 92 CALM 30.01F KEENE NH FAIR 18 13 80 W3 30.07F BURLINGTON VT FAIR 19 12 74 S7 30.06F WCI 10 MT. WASHINGTON NOT AVBL $$ NYZ052-076-180600- EASTERN NEW YORK CITY SKY/WX TMP DP RH WIND PRES REMARKS ALBANY FAIR 11 4 73 CALM 30.16F NEW YORK CITY FAIR 23 11 60 NW14 30.16F WCI 11 $$ ANZALL-180600- MARINE OBSERVATIONS STATION/POSITION TIME TEMP WIND PRES VSBY WAVE AIR SEA DIR/SP/G HT/PER (UTC) (F) (DEG/KT/KT) (MB) (MI) (FT/S) BOSTON BUOY 0350 33 41 310/ 14/ 16 1017.2 4/10 BUZZARDS BAY 0400 33 330/ 10/ 11 1018.8R NANTUCKET SOUND 0350 32 35 310/ 8/ 8 1017.7 1/ 9 MASS BAY-STELLWA 0404 31 39 1016.7F 5/11 ISLE OF SHOALS 0400 30 320/ 11/ 11 1017.5F S OF BLOCK IS 0443 42 N/A 4/10 $$ ......................KEY......................... SKY/WX - SKY CONDITION/PRESENT WEATHER TMP - TEMPERATURE IN FAHRENHEIT DWPT - DEWPOINT IN FAHRENHEIT RH - RELATIVE HUMIDITY IN PERCENT WIND - DIRECTION AND SPEED IN MPH PRES - MEAN SEA LEVEL PRESSURE IN INCHES OF HG WCI - WIND CHILL INDEX VSB - VISIBILITY IN MILES HX - HEAT INDEX TC - TEMPERATURE IN CELSIUS VRB - VARIABLE WIND DIRECTION N/A - NOT AVAILABLE

USA.gov is the U.S. government's official web portal to all federal, state and local government web resources and services.